Location: Dead Woman Crossing
(43.5369°N, 106.3228°W)
Time: 06:31:16
(UTC+00:00)

COSMOS 2251 DEB - Pass Details

Date: 04 December 2022
Orbit: 765 x 800 km, 74.0° (Epoch: 27 January)

Event Time Altitude Azimuth Distance (km) Brightness Sun altitude
Rises 01:25:20 0° 338° (NNW) 3,256 ? -20.4°
Reaches altitude 10° 01:27:43 10° 337° (NNW) 2,321 ? -20.8°
Maximum altitude 01:32:59 78° 252° (WSW) 788 ? -21.7°
Drops below altitude 10° 01:38:11 10° 167° (SSE) 2,295 ? -22.7°
Sets 01:40:32 0° 166° (SSE) 3,216 ? -23.1°
